Fitchburg, MA

10:00 PM EDT on July 18, 2019 (GMT -0400)
Fitchburg Municipal

Weather History for KFIT - May, 2019

Change the Weather History Date:

Monday, May 20, 2019

  Actual Average (KORH) Record (KORH)
Temperature  
Mean Temperature 74 °F -  
Max Temperature 84 °F 68 °F 91 °F (1903)
Min Temperature 66 °F 48 °F 34 °F (1944)
Cooling Degree Days 9    
Growing Degree Days 24 (Base 50)    
Moisture  
Dew Point 61 °F    
Average Humidity 68    
Maximum Humidity 87    
Minimum Humidity 41    
Precipitation  
Precipitation 0.18 in - - ()
Sea Level Pressure  
Sea Level Pressure 29.74 in    
Wind  
Wind Speed 9 mph (SW)    
Max Wind Speed 20 mph    
Max Gust Speed 26 mph    
Visibility 10 miles    
Events Rain , Thunderstorm    
Averages and records for this station are not official NWS values.
T = Trace of Precipitation, MM = Missing Value Source: NWS Daily Summary

Daily Weather History Graph

Daily Weather History Graph

Search for Another Location

Airport or City:

Astronomy

May. 20, 2019 Rise Set
Actual Time 5:20 AM EDT 8:07 PM EDT
Civil Twilight 4:47 AM EDT 8:40 PM EDT
Nautical Twilight 4:06 AM EDT 9:21 PM EDT
Astronomical Twilight 3:18 AM EDT 10:09 PM EDT
Moon 10:05 PM EDT (5/20) 6:46 AM EDT (5/20)
Length of Visible Light 15h 52m
Length of Day
14h 46m
Waning Gibbous, 96% of the Moon is Illuminated
May 20
Waning Gibbous
May 26
Last Quarter
Jun 3
New
Jun 10
First Quarter
Jun 17
Full

Hourly Weather History & Observations

Time (EDT) Temp. Heat Index Dew Point Humidity Pressure Visibility Wind Dir Wind Speed Gust Speed Precip Events Conditions
12:37 AM 69.1 °F - 63.0 °F 81% 29.89 in 10.0 mi South 5.8 mph - N/A   Overcast
12:52 AM 69.1 °F - 63.0 °F 81% 29.87 in 10.0 mi SSE 6.9 mph - 0.00 in   Mostly Cloudy
1:24 AM 68.0 °F - 63.0 °F 84% 29.85 in 10.0 mi SSE 6.9 mph - N/A   Scattered Clouds
1:52 AM 68.0 °F - 63.0 °F 84% 29.88 in 10.0 mi SSW 8.1 mph - N/A   Mostly Cloudy
2:52 AM 70.0 °F - 62.1 °F 76% 29.86 in 10.0 mi South 11.5 mph - 0.00 in Rain Light Rain
3:52 AM 66.9 °F - 63.0 °F 87% 29.82 in 10.0 mi South 6.9 mph - 0.02 in   Partly Cloudy
4:52 AM 68.0 °F - 62.1 °F 81% 29.79 in 10.0 mi SSW 4.6 mph - N/A   Clear
5:52 AM 66.9 °F - 61.0 °F 81% 29.76 in 10.0 mi South 5.8 mph - N/A   Clear
6:52 AM 71.1 °F - 61.0 °F 70% 29.79 in 10.0 mi WSW 15.0 mph 20.7 mph N/A   Clear
7:52 AM 72.0 °F - 62.1 °F 71% 29.81 in 10.0 mi West 10.4 mph 16.1 mph N/A   Clear
8:52 AM 73.0 °F - 63.0 °F 71% 29.79 in 10.0 mi WSW 9.2 mph - N/A   Partly Cloudy
9:52 AM 72.0 °F - 63.0 °F 73% 29.78 in 10.0 mi SW 6.9 mph - 0.00 in Rain Light Rain
10:52 AM 72.0 °F - 63.0 °F 73% 29.78 in 10.0 mi SW 5.8 mph - 0.00 in   Mostly Cloudy
11:52 AM 77.0 °F - 62.1 °F 60% 29.76 in 10.0 mi SSW 10.4 mph - N/A   Scattered Clouds
12:52 PM 81.0 °F 81.9 °F 62.1 °F 52% 29.73 in 10.0 mi West 9.2 mph 18.4 mph N/A   Partly Cloudy
1:52 PM 81.0 °F 81.7 °F 61.0 °F 50% 29.71 in 10.0 mi SW 11.5 mph 21.9 mph N/A   Mostly Cloudy
2:52 PM 81.0 °F 81.7 °F 61.0 °F 50% 29.68 in 10.0 mi SW 12.7 mph 20.7 mph N/A   Mostly Cloudy
3:52 PM 81.0 °F 81.6 °F 60.1 °F 49% 29.67 in 10.0 mi SW 15.0 mph 26.5 mph N/A   Scattered Clouds
4:52 PM 82.0 °F 82.1 °F 59.0 °F 45% 29.65 in 10.0 mi SW 10.4 mph 25.3 mph N/A   Partly Cloudy
5:52 PM 82.9 °F 82.8 °F 59.0 °F 44% 29.63 in 10.0 mi WSW 9.2 mph - N/A   Clear
6:52 PM 81.0 °F 80.7 °F 55.0 °F 41% 29.64 in 10.0 mi West 9.2 mph - N/A   Partly Cloudy
7:52 PM 77.0 °F - 61.0 °F 58% 29.65 in 10.0 mi SSW 6.9 mph - N/A   Scattered Clouds
8:52 PM 75.0 °F - 62.1 °F 64% 29.65 in 10.0 mi SSW 4.6 mph - N/A   Scattered Clouds
9:37 PM 71.1 °F - 64.0 °F 78% 29.67 in 1.8 mi WSW 11.5 mph - 0.16 in Rain Heavy Rain
9:45 PM 69.1 °F - 63.0 °F 81% 29.68 in 3.0 mi SW 9.2 mph - 0.16 in Rain Light Rain
9:49 PM 69.8 °F - 64.4 °F 83% 29.68 in 10.0 mi SSW 8.1 mph - 0.16 in Rain , Thunderstorm Light Thunderstorms and Rain
9:52 PM 69.1 °F - 64.0 °F 84% 29.68 in 10.0 mi SW 6.9 mph - 0.16 in Thunderstorm Thunderstorm
10:15 PM 70.0 °F - 62.1 °F 76% 29.69 in 10.0 mi WNW 9.2 mph 18.4 mph N/A   Overcast
10:52 PM 69.1 °F - 55.9 °F 63% 29.71 in 10.0 mi NW 15.0 mph 23.0 mph N/A   Scattered Clouds
11:52 PM 66.0 °F - 50.0 °F 56% 29.73 in 10.0 mi WNW 19.6 mph 26.5 mph N/A   Scattered Clouds